STARLINK-11437, 62884

Orbit data source: Space-Track

STARLINK-11437, 62884 is a payload satellite owned by SpaceX/Seattle (US) in LEO that was launched on Tue, 04 Feb 2025 UTC via an FALCON 9 launch vehicle from the Air Force Eastern Test Range (AFETR). Payload-class satellites include a variety of spacecraft equipped with specific instruments for various scientific and technological missions. These include communications satellites like Starlink; space stations such as the ISS; scientific satellites like the Hubble; Earth observation satellites from companies like Planet Labs, Umbra, and HawkEye 360; GPS; miniature CubeSats for education and research; and military/defense satellites.

Loading next visibility...
Identifier
62884, 2025-024F
Orbit
LEO
Country
Flag of USUS
Related business
Manufacturer
SpaceX/Seattle
Mission
Operational Commercial Communications
Bus & Motor
STARLINK V2MD, Unknown motor
Mass
960 kg wet, ~910 kg dry
Launch date (UTC)
2025-02-04 (10 months ago)
Launch vehicle
FALCON 9
Launch site
Air Force Eastern Test Range (AFETR)
Object type
Payload
Rocket body
Debris
Shape & HBR
Box + 2 Pan, 18.1 m
Radar Cross Section
36.964 m², Large (>1 m²)

Expand to show TLE details & history
Last TLE update: 9 hours ago

TLE from 9 hours ago
0 STARLINK-11437
1 62884U 25024F   25346.89017335  .00311111  00000-0  23294-2 0  9997
2 62884  42.9990 344.8027 0001319 268.1183  91.9533 15.70932329 49817
Epoch: 2025-12-12T21:21Z
TLE epoch observation values (Epoch: 2025-12-12T21:21:50.977Z)
Latitude
-0.00006°
Longitude
-57.48507°
Altitude
356.033 km
Speed
7.697 km/s
True Right ascension
22h 59m 12s
True Declination
0° 00' 00"
Sunlit
Object was in daylight at epoch
Visualization orbit readout
Latitude
Unknown
Longitude
Unknown
Altitude
Unknown
Speed
Unknown
Apparent Right ascension
Unknown
Apparent Declination
Unknown
Sunlit
N/A
Visualization observer readout
Local Sidereal Time
04:56:08
Azimuth
Unknown
Elevation
Unknown
Doppler factor
Unknown
Orbital elements
Apogee altitude
359.102 km
Perigee altitude
357.324 km
Semi-major axis
6,736.35 km
Eccentricity
0.00013
Inclination
42.999°
RAAN
344.8027°
Arg. of periapsis
268.1183°
True anomaly
91.96841°
Mean anomaly
91.9533°
Eccentric anomaly
91.96085°
Mean motion
3.9256 °/min
Orbital period
91.71 mins
BSTAR
0.0023294
Loading maneuver chart data...
Computing Atmospheric mass density...
Loading historical data...
Loading historical data...
Loading historical data...
Loading historical data...
Loading historical data...
Loading historical data...
Loading historical data...

Documentation

Showing up to 5 results
|